Hilo, HI

1:36 PM HST on March 27, 2017 (GMT -1000)
Hilo International

Weather History for PHTO - August, 2014

Change the Weather History Date:

Wednesday, August 27, 2014

  Actual Average Record
Temperature  
Mean Temperature 79 °F 76 °F  
Max Temperature 85 °F 83 °F 88 °F (2006)
Min Temperature 72 °F 70 °F 64 °F (1960)
Degree Days  
Heating Degree Days 0 0  
Month to date heating degree days 0 0  
Since 1 June heating degree days 0 0  
Since 1 July heating degree days 0 0  
Cooling Degree Days 14 11  
Month to date cooling degree days 360 297  
Year to date cooling degree days 2228 2014  
Since 1 June cooling degree days 972 946  
Growing Degree Days 28 (Base 50)    
Moisture  
Dew Point 69 °F    
Average Humidity 76    
Maximum Humidity 93    
Minimum Humidity 59    
Precipitation  
Precipitation 0.23 in 0.28 in 2.15 in (1995)
Month to date precipitation 10.67 8.70  
Year to date precipitation 80.97 78.79  
Snow  
Snow 0.00 in - - ()
Month to date snowfall 0.0  
Since 1 June snowfall 0.0  
Since 1 July snowfall 0.0  
Snow Depth 0.00 in    
Sea Level Pressure  
Sea Level Pressure 29.90 in    
Wind  
Wind Speed 7 mph (NNW)    
Max Wind Speed 14 mph    
Max Gust Speed 17 mph    
Visibility 10 miles    
Events Rain    
T = Trace of Precipitation, MM = Missing Value Source: NWS Daily Summary

Daily Weather History Graph

Daily Weather History Graph

Search for Another Location

Airport or City:

Trip Planner

Search our weather history database for the weather conditions in past years. The results will help you decide how hot, cold, wet, or windy it might be!

Date:

Astronomy

Aug. 27, 2014 Rise Set
Actual Time 6:03 AM HST 6:39 PM HST
Civil Twilight 5:41 AM HST 7:01 PM HST
Nautical Twilight 5:14 AM HST 7:27 PM HST
Astronomical Twilight 4:48 AM HST 7:54 PM HST
Moon 7:47 AM HST 8:02 PM HST
Length of Visible Light 13h 20m
Length of Day
12h 35m
Waxing Crescent, 5% of the Moon is Illuminated
Aug 27
Waxing Crescent
Sep 2
First Quarter
Sep 8
Full
Sep 15
Last Quarter
Sep 23
New

Hourly Weather History & Observations

Time (HST) Temp. Heat Index Dew Point Humidity Pressure Visibility Wind Dir Wind Speed Gust Speed Precip Events Conditions
12:53 AM 72.0 °F - 68.0 °F 87% 29.93 in 10.0 mi West 8.1 mph - 0.00 in   Overcast
1:53 AM 72.0 °F - 69.1 °F 91% 29.91 in 10.0 mi SW 3.5 mph - N/A   Overcast
2:53 AM 73.0 °F - 69.1 °F 87% 29.90 in 7.0 mi NE 3.5 mph - 0.00 in Rain Light Rain
3:53 AM 73.0 °F - 70.0 °F 90% 29.89 in 10.0 mi West 5.8 mph - 0.23 in Rain Light Rain
4:21 AM 73.0 °F - 70.0 °F 90% 29.90 in 10.0 mi SSW 3.5 mph - 0.00 in   Overcast
4:37 AM 72.0 °F - 70.0 °F 93% 29.90 in 10.0 mi SW 5.8 mph - 0.00 in   Mostly Cloudy
4:53 AM 72.0 °F - 69.1 °F 91% 29.90 in 10.0 mi SW 4.6 mph - 0.00 in   Mostly Cloudy
5:53 AM 73.0 °F - 70.0 °F 90% 29.90 in 10.0 mi WSW 3.5 mph - N/A   Overcast
6:53 AM 72.0 °F - 69.1 °F 91% 29.92 in 10.0 mi WSW 5.8 mph - N/A   Scattered Clouds
7:53 AM 75.9 °F - 71.1 °F 85% 29.93 in 10.0 mi NNW 5.8 mph - N/A   Mostly Cloudy
8:53 AM 80.1 °F 82.9 °F 69.1 °F 69% 29.93 in 10.0 mi NW 8.1 mph - 0.00 in   Mostly Cloudy
9:53 AM 80.1 °F 83.2 °F 70.0 °F 71% 29.94 in 10.0 mi North 6.9 mph - N/A   Partly Cloudy
10:53 AM 82.9 °F 87.0 °F 70.0 °F 65% 29.93 in 10.0 mi NNW 10.4 mph - N/A   Scattered Clouds
11:53 AM 84.9 °F 89.4 °F 70.0 °F 61% 29.91 in 10.0 mi NNE 9.2 mph - N/A   Partly Cloudy
12:53 PM 84.0 °F 87.8 °F 69.1 °F 61% 29.90 in 10.0 mi NE 11.5 mph - N/A   Partly Cloudy
1:53 PM 84.9 °F 88.8 °F 69.1 °F 59% 29.89 in 10.0 mi NE 11.5 mph - N/A   Partly Cloudy
2:53 PM 84.0 °F 87.0 °F 68.0 °F 58% 29.87 in 10.0 mi North 11.5 mph - N/A   Partly Cloudy
3:53 PM 84.0 °F 86.5 °F 66.9 °F 56% 29.87 in 10.0 mi NNE 9.2 mph - N/A   Partly Cloudy
4:53 PM 82.9 °F 86.5 °F 69.1 °F 63% 29.87 in 10.0 mi NNE 8.1 mph - N/A   Partly Cloudy
5:53 PM 81.0 °F 84.1 °F 69.1 °F 67% 29.87 in 10.0 mi North 6.9 mph - N/A   Mostly Cloudy
6:53 PM 79.0 °F - 68.0 °F 69% 29.88 in 10.0 mi NNE 9.2 mph - N/A   Mostly Cloudy
7:53 PM 79.0 °F - 69.1 °F 72% 29.90 in 10.0 mi North 5.8 mph - N/A   Overcast
8:53 PM 78.1 °F - 66.9 °F 68% 29.92 in 10.0 mi North 4.6 mph - N/A   Partly Cloudy
9:53 PM 77.0 °F - 68.0 °F 74% 29.92 in 10.0 mi NE 6.9 mph - N/A   Mostly Cloudy
10:53 PM 75.0 °F - 69.1 °F 82% 29.93 in 10.0 mi West 6.9 mph - N/A   Partly Cloudy
11:53 PM 73.0 °F - 68.0 °F 84% 29.91 in 10.0 mi WSW 3.5 mph - N/A   Scattered Clouds